Find Starlink 30420

NORAD ID: 57846 Int'l Des: 2023-141 Owner: SPXS Country: US Constellation: starlink decayed
LEOCIRCULAR

Re-entered — Dec 31, 2024

Loading 3D Globe...

About Starlink 30420

Starlink 30420 (NORAD 57846) is a starlink constellation satellite (v2 mini) launched Sep 12, 2023 by SPXS of US. It re-entered the atmosphere on Dec 31, 2024. with a mass of 730.00 kg.

About Starlink 30420

Description loading...

Altitude History

Loading altitude history...

Two-Line Element Set

1 57846U 23141G 24366.37079123 .36557156 12305-4 49776-2 0 9992
2 57846 53.1143 120.6350 0006992 332.6458 95.8516 16.34427977 74200
Epoch: Dec 31, 2024 • Age: 12939 hours

Current Status

Position data unavailable
Launch Date Sep 12, 2023
Age 2.7 years
Decay Date Dec 31, 2024
Type internet

Technical Details

Classification Payload
Mass 730.00 kg
Dry Mass 700.00 kg
Total Mass 730.00 kg
Length 0.30 m
Diameter 4.10 m
Span 29.00 m
Shape Box + pan
Manufacturer SPXS
Bus Type Starlink V2M
Phase Status Unknown Transfer Status
Owner/State SPXS/US

Most Searched